contact:dominique.lefevre@mio.osupytheas.fr, maurice.libes@osupytheas.fr, didier.mallarino@osupytheas.fr
Project:EMSO http://www.emso-fr.org/EMSO-France
Depth: 2436.0 m
Title:EMSO Ligure Ouest : Data MII capteur MICROCAT
DateTime_Computer,Latitude,Longitude,Temperature,Conductivity,Pressure,DateTime_Instrument
DateTime_Computer,Latitude,Longitude,degC,S m-1,dbar,DateTime_Instrument
2022-03-17T00:00:35Z,42.805,6.029,13.3024,4.60076,2470.1,2022-3-17T02:02:11Z
2022-03-17T00:03:38Z,42.805,6.029,13.3017,4.60064,2470.147,2022-3-17T02:05:14Z
2022-03-17T00:06:41Z,42.805,6.029,13.3020,4.60059,2470.1,2022-3-17T02:08:17Z
2022-03-17T00:09:44Z,42.805,6.029,13.3022,4.60072,2470.11,2022-3-17T02:11:20Z
2022-03-17T00:12:47Z,42.805,6.029,13.3019,4.60066,2470.087,2022-3-17T02:14:23Z
2022-03-17T00:15:50Z,42.805,6.029,13.3035,4.60069,2470.124,2022-3-17T02:17:26Z
2022-03-17T00:18:54Z,42.805,6.029,13.3031,4.60084,2470.087,2022-3-17T02:20:30Z
2022-03-17T00:21:57Z,42.805,6.029,13.3029,4.60089,2470.087,2022-3-17T02:23:33Z
2022-03-17T00:25:00Z,42.805,6.029,13.3017,4.60068,2470.1,2022-3-17T02:26:36Z
2022-03-17T00:28:03Z,42.805,6.029,13.3024,4.60081,2470.1,2022-3-17T02:29:39Z
2022-03-17T00:31:06Z,42.805,6.029,13.3026,4.60086,2470.077,2022-3-17T02:32:42Z
2022-03-17T00:34:09Z,42.805,6.029,13.3018,4.60078,2470.087,2022-3-17T02:35:45Z
2022-03-17T00:37:12Z,42.805,6.029,13.3026,4.60072,2470.1,2022-3-17T02:38:48Z
2022-03-17T00:40:15Z,42.805,6.029,13.3019,4.60080,2470.063,2022-3-17T02:41:51Z
2022-03-17T00:43:19Z,42.805,6.029,13.3031,4.60062,2470.087,2022-3-17T02:44:55Z
2022-03-17T00:46:22Z,42.805,6.029,13.3015,4.60061,2470.04,2022-3-17T02:47:58Z
2022-03-17T00:49:25Z,42.805,6.029,13.3024,4.60077,2470.063,2022-3-17T02:51:01Z
2022-03-17T00:52:28Z,42.805,6.029,13.3015,4.60073,2470.063,2022-3-17T02:54:04Z
2022-03-17T00:55:31Z,42.805,6.029,13.3036,4.60074,2470.1,2022-3-17T02:57:07Z
2022-03-17T00:58:34Z,42.805,6.029,13.3031,4.60083,2470.087,2022-3-17T03:00:10Z
2022-03-17T01:01:37Z,42.805,6.029,13.3026,4.60073,2470.077,2022-3-17T03:03:13Z
2022-03-17T01:04:40Z,42.805,6.029,13.3029,4.60087,2470.077,2022-3-17T03:06:16Z
2022-03-17T01:07:43Z,42.805,6.029,13.3034,4.60081,2470.077,2022-3-17T03:09:19Z
2022-03-17T01:10:47Z,42.805,6.029,13.3015,4.60075,2470.063,2022-3-17T03:12:23Z
2022-03-17T01:13:50Z,42.805,6.029,13.3029,4.60076,2470.077,2022-3-17T03:15:26Z
2022-03-17T01:16:53Z,42.805,6.029,13.3031,4.60098,2470.063,2022-3-17T03:18:29Z
2022-03-17T01:19:56Z,42.805,6.029,13.3033,4.60092,2470.063,2022-3-17T03:21:32Z
2022-03-17T01:22:59Z,42.805,6.029,13.3040,4.60071,2470.04,2022-3-17T03:24:35Z
2022-03-17T01:26:02Z,42.805,6.029,13.3021,4.60074,2470.063,2022-3-17T03:27:38Z
2022-03-17T01:29:05Z,42.805,6.029,13.3024,4.60089,2470.04,2022-3-17T03:30:41Z
2022-03-17T01:32:08Z,42.805,6.029,13.3027,4.60075,2470.063,2022-3-17T03:33:44Z
2022-03-17T01:35:12Z,42.805,6.029,13.3024,4.60069,2470.04,2022-3-17T03:36:48Z
2022-03-17T01:38:15Z,42.805,6.029,13.3036,4.60066,2470.063,2022-3-17T03:39:51Z
2022-03-17T01:41:18Z,42.805,6.029,13.3026,4.60105,2470.087,2022-3-17T03:42:54Z
2022-03-17T01:44:21Z,42.805,6.029,13.3039,4.60077,2470.077,2022-3-17T03:45:57Z
2022-03-17T01:47:24Z,42.805,6.029,13.3024,4.60080,2470.1,2022-3-17T03:49:00Z
2022-03-17T01:50:27Z,42.805,6.029,13.3024,4.60107,2470.063,2022-3-17T03:52:03Z
2022-03-17T01:53:30Z,42.805,6.029,13.3032,4.60075,2470.087,2022-3-17T03:55:06Z
2022-03-17T01:56:33Z,42.805,6.029,13.3039,4.60091,2470.063,2022-3-17T03:58:09Z
2022-03-17T01:59:37Z,42.805,6.029,13.3022,4.60090,2470.087,2022-3-17T04:01:13Z
2022-03-17T02:02:40Z,42.805,6.029,13.3026,4.60104,2470.091,2022-3-17T04:04:16Z
2022-03-17T02:05:43Z,42.805,6.029,13.3036,4.60092,2470.053,2022-3-17T04:07:19Z
2022-03-17T02:08:46Z,42.805,6.029,13.3031,4.60082,2470.1,2022-3-17T04:10:22Z
2022-03-17T02:11:49Z,42.805,6.029,13.3019,4.60077,2470.063,2022-3-17T04:13:25Z
2022-03-17T02:14:52Z,42.805,6.029,13.3033,4.60097,2470.1,2022-3-17T04:16:28Z
2022-03-17T02:17:55Z,42.805,6.029,13.3014,4.60064,2470.133,2022-3-17T04:19:31Z
2022-03-17T02:20:58Z,42.805,6.029,13.3017,4.60079,2470.077,2022-3-17T04:22:34Z
2022-03-17T02:24:02Z,42.805,6.029,13.3023,4.60086,2470.087,2022-3-17T04:25:38Z
2022-03-17T02:27:05Z,42.805,6.029,13.3043,4.60101,2470.11,2022-3-17T04:28:41Z
2022-03-17T02:30:08Z,42.805,6.029,13.3034,4.60096,2470.1,2022-3-17T04:31:44Z
2022-03-17T02:33:11Z,42.805,6.029,13.3028,4.60081,2470.1,2022-3-17T04:34:47Z
2022-03-17T02:36:14Z,42.805,6.029,13.3024,4.60079,2470.1,2022-3-17T04:37:50Z
2022-03-17T02:39:17Z,42.805,6.029,13.3014,4.60075,2470.063,2022-3-17T04:40:53Z
2022-03-17T02:42:20Z,42.805,6.029,13.3014,4.60072,2470.11,2022-3-17T04:43:56Z
2022-03-17T02:45:23Z,42.805,6.029,13.3026,4.60089,2470.147,2022-3-17T04:46:59Z
2022-03-17T02:48:27Z,42.805,6.029,13.3024,4.60068,2470.077,2022-3-17T04:50:03Z
2022-03-17T02:51:30Z,42.805,6.029,13.3014,4.60062,2470.1,2022-3-17T04:53:06Z
2022-03-17T02:54:33Z,42.805,6.029,13.3014,4.60063,2470.11,2022-3-17T04:56:09Z
2022-03-17T02:57:36Z,42.805,6.029,13.3012,4.60066,2470.1,2022-3-17T04:59:12Z
2022-03-17T03:00:39Z,42.805,6.029,13.3015,4.60057,2470.11,2022-3-17T05:02:15Z
2022-03-17T03:03:42Z,42.805,6.029,13.3014,4.60056,2470.11,2022-3-17T05:05:18Z
2022-03-17T03:06:45Z,42.805,6.029,13.3006,4.60056,2470.11,2022-3-17T05:08:21Z
2022-03-17T03:09:48Z,42.805,6.029,13.3018,4.60072,2470.133,2022-3-17T05:11:24Z
2022-03-17T03:12:52Z,42.805,6.029,13.3011,4.60064,2470.124,2022-3-17T05:14:28Z
2022-03-17T03:15:55Z,42.805,6.029,13.3014,4.60058,2470.124,2022-3-17T05:17:31Z
2022-03-17T03:18:58Z,42.805,6.029,13.3014,4.60063,2470.147,2022-3-17T05:20:34Z
2022-03-17T03:22:01Z,42.805,6.029,13.3015,4.60059,2470.133,2022-3-17T05:23:37Z
2022-03-17T03:25:04Z,42.805,6.029,13.3014,4.60055,2470.133,2022-3-17T05:26:40Z
2022-03-17T03:28:07Z,42.805,6.029,13.3015,4.60059,2470.133,2022-3-17T05:29:43Z
2022-03-17T03:31:10Z,42.805,6.029,13.3014,4.60052,2470.156,2022-3-17T05:32:46Z
2022-03-17T03:34:13Z,42.805,6.029,13.3009,4.60046,2470.156,2022-3-17T05:35:49Z
2022-03-17T03:37:17Z,42.805,6.029,13.3018,4.60069,2470.171,2022-3-17T05:38:53Z
2022-03-17T03:40:20Z,42.805,6.029,13.3015,4.60068,2470.18,2022-3-17T05:41:56Z
2022-03-17T03:43:23Z,42.805,6.029,13.3010,4.60065,2470.171,2022-3-17T05:44:59Z
2022-03-17T03:46:26Z,42.805,6.029,13.3013,4.60062,2470.171,2022-3-17T05:48:02Z
2022-03-17T03:49:29Z,42.805,6.029,13.3011,4.60064,2470.18,2022-3-17T05:51:05Z
2022-03-17T03:52:32Z,42.805,6.029,13.3019,4.60084,2470.217,2022-3-17T05:54:08Z
2022-03-17T03:55:35Z,42.805,6.029,13.3021,4.60067,2470.18,2022-3-17T05:57:11Z
2022-03-17T03:58:38Z,42.805,6.029,13.3011,4.60049,2470.194,2022-3-17T06:00:14Z
2022-03-17T04:01:41Z,42.805,6.029,13.3014,4.60049,2470.18,2022-3-17T06:03:18Z
2022-03-17T04:04:45Z,42.805,6.029,13.3012,4.60052,2470.203,2022-3-17T06:06:21Z
2022-03-17T04:07:48Z,42.805,6.029,13.3013,4.60072,2470.227,2022-3-17T06:09:24Z
2022-03-17T04:10:51Z,42.805,6.029,13.3014,4.60053,2470.194,2022-3-17T06:12:27Z
2022-03-17T04:13:54Z,42.805,6.029,13.3022,4.60072,2470.203,2022-3-17T06:15:30Z
2022-03-17T04:16:57Z,42.805,6.029,13.3015,4.60053,2470.227,2022-3-17T06:18:33Z
2022-03-17T04:20:00Z,42.805,6.029,13.3015,4.60057,2470.217,2022-3-17T06:21:36Z
2022-03-17T04:23:03Z,42.805,6.029,13.3012,4.60084,2470.203,2022-3-17T06:24:39Z
2022-03-17T04:26:06Z,42.805,6.029,13.3013,4.60057,2470.217,2022-3-17T06:27:42Z
2022-03-17T04:29:10Z,42.805,6.029,13.3014,4.60058,2470.264,2022-3-17T06:30:46Z
2022-03-17T04:32:13Z,42.805,6.029,13.3015,4.60054,2470.217,2022-3-17T06:33:49Z
2022-03-17T04:35:16Z,42.805,6.029,13.3015,4.60055,2470.25,2022-3-17T06:36:52Z
2022-03-17T04:38:19Z,42.805,6.029,13.3014,4.60067,2470.264,2022-3-17T06:39:55Z
2022-03-17T04:41:22Z,42.805,6.029,13.3013,4.60051,2470.25,2022-3-17T06:42:58Z
2022-03-17T04:44:25Z,42.805,6.029,13.3013,4.60054,2470.264,2022-3-17T06:46:01Z
2022-03-17T04:47:28Z,42.805,6.029,13.3016,4.60061,2470.264,2022-3-17T06:49:04Z
2022-03-17T04:50:31Z,42.805,6.029,13.3023,4.60062,2470.273,2022-3-17T06:52:07Z
2022-03-17T04:53:35Z,42.805,6.029,13.3013,4.60054,2470.264,2022-3-17T06:55:11Z
2022-03-17T04:56:38Z,42.805,6.029,13.3014,4.60059,2470.273,2022-3-17T06:58:14Z
2022-03-17T04:59:41Z,42.805,6.029,13.3011,4.60052,2470.25,2022-3-17T07:01:17Z
2022-03-17T05:02:44Z,42.805,6.029,13.3014,4.60050,2470.273,2022-3-17T07:04:20Z
2022-03-17T05:05:47Z,42.805,6.029,13.3011,4.60050,2470.273,2022-3-17T07:07:23Z
2022-03-17T05:08:50Z,42.805,6.029,13.3013,4.60052,2470.264,2022-3-17T07:10:26Z
2022-03-17T05:11:53Z,42.805,6.029,13.3009,4.60062,2470.273,2022-3-17T07:13:29Z
2022-03-17T05:14:56Z,42.805,6.029,13.3007,4.60049,2470.31,2022-3-17T07:16:32Z
2022-03-17T05:18:00Z,42.805,6.029,13.3020,4.60063,2470.31,2022-3-17T07:19:36Z
2022-03-17T05:21:03Z,42.805,6.029,13.3015,4.60062,2470.287,2022-3-17T07:22:39Z
2022-03-17T05:24:06Z,42.805,6.029,13.3008,4.60050,2470.31,2022-3-17T07:25:42Z
2022-03-17T05:27:09Z,42.805,6.029,13.3011,4.60059,2470.31,2022-3-17T07:28:45Z
2022-03-17T05:30:12Z,42.805,6.029,13.3008,4.60050,2470.297,2022-3-17T07:31:48Z
2022-03-17T05:33:15Z,42.805,6.029,13.3014,4.60057,2470.31,2022-3-17T07:34:51Z
2022-03-17T05:36:18Z,42.805,6.029,13.3014,4.60056,2470.334,2022-3-17T07:37:54Z
2022-03-17T05:39:21Z,42.805,6.029,13.3007,4.60060,2470.334,2022-3-17T07:40:57Z
2022-03-17T05:42:25Z,42.805,6.029,13.3005,4.60054,2470.334,2022-3-17T07:44:01Z
2022-03-17T05:45:28Z,42.805,6.029,13.3009,4.60054,2470.297,2022-3-17T07:47:04Z
2022-03-17T05:48:31Z,42.805,6.029,13.3006,4.60054,2470.32,2022-3-17T07:50:07Z
2022-03-17T05:51:34Z,42.805,6.029,13.3009,4.60060,2470.343,2022-3-17T07:53:10Z
2022-03-17T05:54:37Z,42.805,6.029,13.3009,4.60067,2470.31,2022-3-17T07:56:13Z
2022-03-17T05:57:40Z,42.805,6.029,13.3012,4.60059,2470.343,2022-3-17T07:59:16Z
2022-03-17T06:00:43Z,42.805,6.029,13.3006,4.60062,2470.32,2022-3-17T08:02:19Z
2022-03-17T06:03:46Z,42.805,6.029,13.3011,4.60054,2470.334,2022-3-17T08:05:22Z
2022-03-17T06:06:49Z,42.805,6.029,13.3014,4.60067,2470.366,2022-3-17T08:08:26Z
2022-03-17T06:09:53Z,42.805,6.029,13.3009,4.60057,2470.357,2022-3-17T08:11:29Z
2022-03-17T06:12:56Z,42.805,6.029,13.3009,4.60062,2470.32,2022-3-17T08:14:32Z
2022-03-17T06:15:59Z,42.805,6.029,13.3015,4.60055,2470.357,2022-3-17T08:17:35Z
2022-03-17T06:19:02Z,42.805,6.029,13.3008,4.60056,2470.343,2022-3-17T08:20:38Z
2022-03-17T06:22:05Z,42.805,6.029,13.3011,4.60069,2470.357,2022-3-17T08:23:41Z
2022-03-17T06:25:08Z,42.805,6.029,13.3011,4.60063,2470.343,2022-3-17T08:26:44Z
2022-03-17T06:28:11Z,42.805,6.029,13.3011,4.60060,2470.343,2022-3-17T08:29:47Z
2022-03-17T06:31:14Z,42.805,6.029,13.3004,4.60054,2470.343,2022-3-17T08:32:50Z
2022-03-17T06:34:18Z,42.805,6.029,13.3014,4.60052,2470.38,2022-3-17T08:35:54Z
2022-03-17T06:37:21Z,42.805,6.029,13.3009,4.60063,2470.343,2022-3-17T08:38:57Z
2022-03-17T06:40:24Z,42.805,6.029,13.3006,4.60051,2470.32,2022-3-17T08:42:00Z
2022-03-17T06:43:27Z,42.805,6.029,13.3011,4.60051,2470.39,2022-3-17T08:45:03Z
2022-03-17T06:46:30Z,42.805,6.029,13.3013,4.60063,2470.39,2022-3-17T08:48:06Z
2022-03-17T06:49:33Z,42.805,6.029,13.3006,4.60048,2470.343,2022-3-17T08:51:09Z
2022-03-17T06:52:36Z,42.805,6.029,13.3011,4.60051,2470.38,2022-3-17T08:54:12Z
2022-03-17T06:55:39Z,42.805,6.029,13.3009,4.60046,2470.38,2022-3-17T08:57:15Z
2022-03-17T06:58:43Z,42.805,6.029,13.3010,4.60051,2470.343,2022-3-17T09:00:19Z
2022-03-17T07:01:46Z,42.805,6.029,13.3009,4.60052,2470.366,2022-3-17T09:03:22Z
2022-03-17T07:04:49Z,42.805,6.029,13.3012,4.60049,2470.353,2022-3-17T09:06:25Z
2022-03-17T07:07:52Z,42.805,6.029,13.3015,4.60058,2470.39,2022-3-17T09:09:28Z
2022-03-17T07:10:55Z,42.805,6.029,13.3012,4.60052,2470.38,2022-3-17T09:12:31Z
2022-03-17T07:13:58Z,42.805,6.029,13.3009,4.60053,2470.39,2022-3-17T09:15:34Z
2022-03-17T07:17:01Z,42.805,6.029,13.3006,4.60046,2470.38,2022-3-17T09:18:37Z
2022-03-17T07:20:04Z,42.805,6.029,13.3019,4.60064,2470.38,2022-3-17T09:21:40Z
2022-03-17T07:23:08Z,42.805,6.029,13.3016,4.60057,2470.343,2022-3-17T09:24:44Z
2022-03-17T07:26:11Z,42.805,6.029,13.3014,4.60068,2470.366,2022-3-17T09:27:47Z
2022-03-17T07:29:14Z,42.805,6.029,13.3014,4.60051,2470.39,2022-3-17T09:30:50Z
2022-03-17T07:32:17Z,42.805,6.029,13.3012,4.60055,2470.366,2022-3-17T09:33:53Z
2022-03-17T07:35:20Z,42.805,6.029,13.3014,4.60052,2470.404,2022-3-17T09:36:56Z
2022-03-17T07:38:23Z,42.805,6.029,13.3009,4.60053,2470.366,2022-3-17T09:39:59Z
2022-03-17T07:41:26Z,42.805,6.029,13.3007,4.60047,2470.376,2022-3-17T09:43:02Z
2022-03-17T07:44:29Z,42.805,6.029,13.3014,4.60056,2470.413,2022-3-17T09:46:05Z
2022-03-17T07:47:33Z,42.805,6.029,13.3014,4.60058,2470.366,2022-3-17T09:49:09Z
2022-03-17T07:50:36Z,42.805,6.029,13.3009,4.60056,2470.366,2022-3-17T09:52:12Z
2022-03-17T07:53:39Z,42.805,6.029,13.3014,4.60064,2470.366,2022-3-17T09:55:15Z
2022-03-17T07:56:42Z,42.805,6.029,13.3013,4.60049,2470.343,2022-3-17T09:58:18Z
2022-03-17T07:59:45Z,42.805,6.029,13.3017,4.60061,2470.39,2022-3-17T10:01:21Z
2022-03-17T08:02:48Z,42.805,6.029,13.3009,4.60052,2470.366,2022-3-17T10:04:24Z
2022-03-17T08:05:51Z,42.805,6.029,13.3006,4.60053,2470.38,2022-3-17T10:07:27Z
2022-03-17T08:08:54Z,42.805,6.029,13.3010,4.60046,2470.38,2022-3-17T10:10:30Z
2022-03-17T08:11:58Z,42.805,6.029,13.3010,4.60057,2470.39,2022-3-17T10:13:34Z
2022-03-17T08:15:01Z,42.805,6.029,13.3008,4.60046,2470.38,2022-3-17T10:16:37Z
2022-03-17T08:18:04Z,42.805,6.029,13.3008,4.60054,2470.38,2022-3-17T10:19:40Z
2022-03-17T08:21:07Z,42.805,6.029,13.3014,4.60057,2470.39,2022-3-17T10:22:43Z
2022-03-17T08:24:10Z,42.805,6.029,13.3010,4.60062,2470.38,2022-3-17T10:25:46Z
2022-03-17T08:27:13Z,42.805,6.029,13.3010,4.60052,2470.366,2022-3-17T10:28:49Z
2022-03-17T08:30:16Z,42.805,6.029,13.3022,4.60060,2470.366,2022-3-17T10:31:52Z
2022-03-17T08:33:19Z,42.805,6.029,13.3007,4.60052,2470.413,2022-3-17T10:34:55Z
2022-03-17T08:36:23Z,42.805,6.029,13.3014,4.60053,2470.404,2022-3-17T10:37:59Z
2022-03-17T08:39:26Z,42.805,6.029,13.3013,4.60059,2470.366,2022-3-17T10:41:02Z
2022-03-17T08:42:29Z,42.805,6.029,13.3006,4.60049,2470.404,2022-3-17T10:44:05Z
2022-03-17T08:45:32Z,42.805,6.029,13.3016,4.60055,2470.366,2022-3-17T10:47:08Z
2022-03-17T08:48:35Z,42.805,6.029,13.3012,4.60052,2470.366,2022-3-17T10:50:11Z
2022-03-17T08:51:38Z,42.805,6.029,13.3007,4.60053,2470.343,2022-3-17T10:53:14Z
2022-03-17T08:54:41Z,42.805,6.029,13.3009,4.60053,2470.366,2022-3-17T10:56:17Z
2022-03-17T08:57:44Z,42.805,6.029,13.3017,4.60069,2470.366,2022-3-17T10:59:20Z
2022-03-17T09:00:48Z,42.805,6.029,13.3018,4.60059,2470.404,2022-3-17T11:02:24Z
2022-03-17T09:03:51Z,42.805,6.029,13.3013,4.60049,2470.38,2022-3-17T11:05:27Z
2022-03-17T09:06:54Z,42.805,6.029,13.3011,4.60052,2470.38,2022-3-17T11:08:30Z
2022-03-17T09:09:57Z,42.805,6.029,13.3010,4.60052,2470.366,2022-3-17T11:11:33Z
2022-03-17T09:13:00Z,42.805,6.029,13.3017,4.60071,2470.404,2022-3-17T11:14:36Z
2022-03-17T09:16:03Z,42.805,6.029,13.3006,4.60065,2470.343,2022-3-17T11:17:39Z
2022-03-17T09:19:06Z,42.805,6.029,13.3011,4.60052,2470.366,2022-3-17T11:20:42Z
2022-03-17T09:22:09Z,42.805,6.029,13.3005,4.60049,2470.343,2022-3-17T11:23:45Z
2022-03-17T09:25:13Z,42.805,6.029,13.3017,4.60059,2470.38,2022-3-17T11:26:49Z
2022-03-17T09:28:16Z,42.805,6.029,13.3011,4.60059,2470.343,2022-3-17T11:29:52Z
2022-03-17T09:31:19Z,42.805,6.029,13.3010,4.60062,2470.366,2022-3-17T11:32:55Z
2022-03-17T09:34:22Z,42.805,6.029,13.3011,4.60058,2470.343,2022-3-17T11:35:58Z
2022-03-17T09:37:25Z,42.805,6.029,13.3010,4.60057,2470.353,2022-3-17T11:39:01Z
2022-03-17T09:40:28Z,42.805,6.029,13.3011,4.60063,2470.366,2022-3-17T11:42:04Z
2022-03-17T09:43:31Z,42.805,6.029,13.3011,4.60069,2470.357,2022-3-17T11:45:07Z
2022-03-17T09:46:34Z,42.805,6.029,13.3007,4.60053,2470.343,2022-3-17T11:48:10Z
2022-03-17T09:49:38Z,42.805,6.029,13.3011,4.60054,2470.343,2022-3-17T11:51:14Z
2022-03-17T09:52:41Z,42.805,6.029,13.3015,4.60060,2470.343,2022-3-17T11:54:17Z
2022-03-17T09:55:44Z,42.805,6.029,13.3012,4.60067,2470.343,2022-3-17T11:57:20Z
2022-03-17T09:58:47Z,42.805,6.029,13.3014,4.60062,2470.32,2022-3-17T12:00:23Z
2022-03-17T10:01:50Z,42.805,6.029,13.3012,4.60054,2470.357,2022-3-17T12:03:26Z
2022-03-17T10:04:53Z,42.805,6.029,13.3008,4.60046,2470.343,2022-3-17T12:06:29Z
2022-03-17T10:07:56Z,42.805,6.029,13.3010,4.60062,2470.343,2022-3-17T12:09:32Z
2022-03-17T10:10:59Z,42.805,6.029,13.3007,4.60046,2470.334,2022-3-17T12:12:36Z
2022-03-17T10:14:03Z,42.805,6.029,13.3008,4.60051,2470.297,2022-3-17T12:15:39Z
2022-03-17T10:17:06Z,42.805,6.029,13.3008,4.60049,2470.357,2022-3-17T12:18:42Z
2022-03-17T10:20:09Z,42.805,6.029,13.3012,4.60052,2470.334,2022-3-17T12:21:45Z
2022-03-17T10:23:12Z,42.805,6.029,13.3011,4.60051,2470.343,2022-3-17T12:24:48Z
2022-03-17T10:26:15Z,42.805,6.029,13.3015,4.60057,2470.32,2022-3-17T12:27:51Z
2022-03-17T10:29:18Z,42.805,6.029,13.3006,4.60053,2470.343,2022-3-17T12:30:54Z
2022-03-17T10:32:21Z,42.805,6.029,13.3014,4.60052,2470.334,2022-3-17T12:33:57Z
2022-03-17T10:35:24Z,42.805,6.029,13.3008,4.60052,2470.32,2022-3-17T12:37:01Z
2022-03-17T10:38:28Z,42.805,6.029,13.3012,4.60052,2470.334,2022-3-17T12:40:04Z
2022-03-17T10:41:31Z,42.805,6.029,13.3014,4.60063,2470.32,2022-3-17T12:43:07Z
2022-03-17T10:44:34Z,42.805,6.029,13.3014,4.60063,2470.32,2022-3-17T12:46:10Z
2022-03-17T10:47:37Z,42.805,6.029,13.3010,4.60061,2470.297,2022-3-17T12:49:13Z
2022-03-17T10:50:40Z,42.805,6.029,13.3011,4.60064,2470.32,2022-3-17T12:52:16Z
2022-03-17T10:53:43Z,42.805,6.029,13.3006,4.60052,2470.343,2022-3-17T12:55:19Z
2022-03-17T10:56:46Z,42.805,6.029,13.3018,4.60053,2470.334,2022-3-17T12:58:22Z
2022-03-17T10:59:50Z,42.805,6.029,13.3015,4.60058,2470.287,2022-3-17T13:01:26Z
2022-03-17T11:02:53Z,42.805,6.029,13.3019,4.60060,2470.306,2022-3-17T13:04:29Z
2022-03-17T11:05:56Z,42.805,6.029,13.3018,4.60059,2470.334,2022-3-17T13:07:32Z
2022-03-17T11:08:59Z,42.805,6.029,13.3016,4.60066,2470.32,2022-3-17T13:10:35Z
2022-03-17T11:12:02Z,42.805,6.029,13.3014,4.60062,2470.334,2022-3-17T13:13:38Z
2022-03-17T11:15:05Z,42.805,6.029,13.3011,4.60052,2470.32,2022-3-17T13:16:41Z
2022-03-17T11:18:08Z,42.805,6.029,13.3007,4.60051,2470.334,2022-3-17T13:19:44Z
2022-03-17T11:21:11Z,42.805,6.029,13.3014,4.60064,2470.297,2022-3-17T13:22:47Z
2022-03-17T11:24:14Z,42.805,6.029,13.3009,4.60054,2470.297,2022-3-17T13:25:51Z
2022-03-17T11:27:18Z,42.805,6.029,13.3010,4.60045,2470.297,2022-3-17T13:28:54Z
2022-03-17T11:30:21Z,42.805,6.029,13.3014,4.60054,2470.273,2022-3-17T13:31:57Z
2022-03-17T11:33:24Z,42.805,6.029,13.3013,4.60061,2470.31,2022-3-17T13:35:00Z
2022-03-17T11:36:27Z,42.805,6.029,13.3015,4.60052,2470.297,2022-3-17T13:38:03Z
2022-03-17T11:39:30Z,42.805,6.029,13.3018,4.60064,2470.297,2022-3-17T13:41:06Z
2022-03-17T11:42:33Z,42.805,6.029,13.3015,4.60072,2470.25,2022-3-17T13:44:09Z
2022-03-17T11:45:36Z,42.805,6.029,13.3011,4.60055,2470.273,2022-3-17T13:47:12Z
2022-03-17T11:48:40Z,42.805,6.029,13.3017,4.60049,2470.31,2022-3-17T13:50:16Z
2022-03-17T11:51:43Z,42.805,6.029,13.3013,4.60062,2470.25,2022-3-17T13:53:19Z
2022-03-17T11:54:46Z,42.805,6.029,13.3011,4.60056,2470.287,2022-3-17T13:56:22Z
2022-03-17T11:57:49Z,42.805,6.029,13.3012,4.60055,2470.25,2022-3-17T13:59:25Z
2022-03-17T12:00:52Z,42.805,6.029,13.3010,4.60059,2470.287,2022-3-17T14:02:28Z
2022-03-17T12:03:55Z,42.805,6.029,13.3007,4.60057,2470.273,2022-3-17T14:05:31Z
2022-03-17T12:06:58Z,42.805,6.029,13.3014,4.60059,2470.31,2022-3-17T14:08:34Z
2022-03-17T12:10:01Z,42.805,6.029,13.3005,4.60051,2470.273,2022-3-17T14:11:37Z
2022-03-17T12:13:05Z,42.805,6.029,13.3006,4.60050,2470.297,2022-3-17T14:14:41Z
2022-03-17T12:16:08Z,42.805,6.029,13.3013,4.60049,2470.273,2022-3-17T14:17:44Z
2022-03-17T12:19:11Z,42.805,6.029,13.3009,4.60058,2470.25,2022-3-17T14:20:47Z
2022-03-17T12:22:14Z,42.805,6.029,13.3012,4.60050,2470.25,2022-3-17T14:23:50Z
2022-03-17T12:25:17Z,42.805,6.029,13.3011,4.60055,2470.273,2022-3-17T14:26:53Z
2022-03-17T12:28:20Z,42.805,6.029,13.3007,4.60061,2470.25,2022-3-17T14:29:56Z
2022-03-17T12:31:23Z,42.805,6.029,13.3018,4.60061,2470.25,2022-3-17T14:32:59Z
2022-03-17T12:34:26Z,42.805,6.029,13.3016,4.60057,2470.25,2022-3-17T14:36:02Z
2022-03-17T12:37:30Z,42.805,6.029,13.3014,4.60068,2470.25,2022-3-17T14:39:06Z
2022-03-17T12:40:33Z,42.805,6.029,13.3009,4.60051,2470.24,2022-3-17T14:42:09Z
2022-03-17T12:43:36Z,42.805,6.029,13.3011,4.60050,2470.227,2022-3-17T14:45:12Z
2022-03-17T12:46:39Z,42.805,6.029,13.3014,4.60062,2470.273,2022-3-17T14:48:15Z
2022-03-17T12:49:42Z,42.805,6.029,13.3015,4.60068,2470.227,2022-3-17T14:51:18Z
2022-03-17T12:52:45Z,42.805,6.029,13.3014,4.60049,2470.31,2022-3-17T14:54:21Z
2022-03-17T12:55:48Z,42.805,6.029,13.3011,4.60051,2470.334,2022-3-17T14:57:24Z
2022-03-17T12:58:51Z,42.805,6.029,13.3011,4.60066,2470.32,2022-3-17T15:00:27Z
2022-03-17T13:01:55Z,42.805,6.029,13.3011,4.60052,2470.25,2022-3-17T15:03:31Z
2022-03-17T13:04:58Z,42.805,6.029,13.3016,4.60057,2470.25,2022-3-17T15:06:34Z
2022-03-17T13:08:01Z,42.805,6.029,13.3015,4.60062,2470.297,2022-3-17T15:09:37Z
2022-03-17T13:11:04Z,42.805,6.029,13.3006,4.60053,2470.25,2022-3-17T15:12:40Z
2022-03-17T13:14:07Z,42.805,6.029,13.3009,4.60044,2470.25,2022-3-17T15:15:43Z
2022-03-17T13:17:10Z,42.805,6.029,13.3015,4.60049,2470.24,2022-3-17T15:18:46Z
2022-03-17T13:20:13Z,42.805,6.029,13.3009,4.60046,2470.264,2022-3-17T15:21:49Z
2022-03-17T13:23:16Z,42.805,6.029,13.3009,4.60052,2470.203,2022-3-17T15:24:53Z
2022-03-17T13:26:20Z,42.805,6.029,13.3010,4.60052,2470.217,2022-3-17T15:27:56Z
2022-03-17T13:29:23Z,42.805,6.029,13.3008,4.60064,2470.227,2022-3-17T15:30:59Z
2022-03-17T13:32:26Z,42.805,6.029,13.3011,4.60044,2470.18,2022-3-17T15:34:02Z
2022-03-17T13:35:29Z,42.805,6.029,13.3013,4.60058,2470.203,2022-3-17T15:37:05Z
2022-03-17T13:38:32Z,42.805,6.029,13.3011,4.60049,2470.217,2022-3-17T15:40:08Z
2022-03-17T13:41:35Z,42.805,6.029,13.3012,4.60075,2470.203,2022-3-17T15:43:11Z
2022-03-17T13:44:38Z,42.805,6.029,13.3012,4.60059,2470.156,2022-3-17T15:46:14Z
2022-03-17T13:47:41Z,42.805,6.029,13.3020,4.60086,2470.203,2022-3-17T15:49:18Z
2022-03-17T13:50:45Z,42.805,6.029,13.3015,4.60066,2470.18,2022-3-17T15:52:21Z
2022-03-17T13:53:48Z,42.805,6.029,13.3012,4.60058,2470.171,2022-3-17T15:55:24Z
2022-03-17T13:56:51Z,42.805,6.029,13.3018,4.60053,2470.18,2022-3-17T15:58:27Z
2022-03-17T13:59:54Z,42.805,6.029,13.3009,4.60064,2470.194,2022-3-17T16:01:30Z
2022-03-17T14:02:57Z,42.805,6.029,13.3013,4.60053,2470.171,2022-3-17T16:04:33Z
2022-03-17T14:06:00Z,42.805,6.029,13.3011,4.60078,2470.133,2022-3-17T16:07:36Z
2022-03-17T14:09:03Z,42.805,6.029,13.3015,4.60077,2470.18,2022-3-17T16:10:39Z
2022-03-17T14:12:07Z,42.805,6.029,13.3029,4.60062,2470.156,2022-3-17T16:13:43Z
2022-03-17T14:15:10Z,42.805,6.029,13.3015,4.60064,2470.156,2022-3-17T16:16:46Z
2022-03-17T14:18:13Z,42.805,6.029,13.3018,4.60054,2470.147,2022-3-17T16:19:49Z
2022-03-17T14:21:16Z,42.805,6.029,13.3012,4.60051,2470.194,2022-3-17T16:22:52Z
2022-03-17T14:24:19Z,42.805,6.029,13.3009,4.60062,2470.156,2022-3-17T16:25:55Z
2022-03-17T14:27:22Z,42.805,6.029,13.3023,4.60058,2470.18,2022-3-17T16:28:58Z
2022-03-17T14:30:25Z,42.805,6.029,13.3021,4.60069,2470.156,2022-3-17T16:32:01Z
2022-03-17T14:33:28Z,42.805,6.029,13.3015,4.60072,2470.147,2022-3-17T16:35:04Z
2022-03-17T14:36:32Z,42.805,6.029,13.3011,4.60057,2470.156,2022-3-17T16:38:08Z
2022-03-17T14:39:35Z,42.805,6.029,13.3014,4.60053,2470.156,2022-3-17T16:41:11Z
2022-03-17T14:42:38Z,42.805,6.029,13.3009,4.60054,2470.133,2022-3-17T16:44:14Z
2022-03-17T14:45:41Z,42.805,6.029,13.3011,4.60052,2470.133,2022-3-17T16:47:17Z
2022-03-17T14:48:44Z,42.805,6.029,13.3020,4.60057,2470.171,2022-3-17T16:50:20Z
2022-03-17T14:51:47Z,42.805,6.029,13.3009,4.60052,2470.133,2022-3-17T16:53:23Z
2022-03-17T14:54:50Z,42.805,6.029,13.3026,4.60063,2470.156,2022-3-17T16:56:26Z
2022-03-17T14:57:53Z,42.805,6.029,13.3013,4.60054,2470.11,2022-3-17T16:59:29Z
2022-03-17T15:00:57Z,42.805,6.029,13.3010,4.60058,2470.156,2022-3-17T17:02:33Z
2022-03-17T15:04:00Z,42.805,6.029,13.3015,4.60061,2470.133,2022-3-17T17:05:36Z
2022-03-17T15:07:03Z,42.805,6.029,13.3014,4.60051,2470.133,2022-3-17T17:08:39Z
2022-03-17T15:10:06Z,42.805,6.029,13.3014,4.60062,2470.133,2022-3-17T17:11:42Z
2022-03-17T15:13:09Z,42.805,6.029,13.3013,4.60050,2470.133,2022-3-17T17:14:45Z